Weather History for Bentonville, AR

Change the Weather History Date:

Wednesday, July 17, 2013

  Actual Average Record
Temperature  
Mean Temperature 81 °F -  
Max Temperature 93 °F 89 °F 108 °F (1954)
Min Temperature 69 °F 65 °F 53 °F (1976)
Cooling Degree Days 16    
Growing Degree Days 31 (Base 50)    
Moisture  
Dew Point 66 °F    
Average Humidity 62    
Maximum Humidity 88    
Minimum Humidity 34    
Precipitation  
Precipitation 0.00 in - - ()
Sea Level Pressure  
Sea Level Pressure 30.29 in    
Wind  
Wind Speed 4 mph (SE)    
Max Wind Speed 9 mph    
Max Gust Speed -    
Visibility 10 miles    
Events      
Averages and records for this station are not official NWS values.
T = Trace of Precipitation, MM = Missing Value Source: NWS Daily Summary

Daily Weather History Graph

Daily Weather History Graph

Search for Another Location

Airport:

Trip Planner

Search our weather history database for the weather conditions in past years. The results will help you decide how hot, cold, wet, or windy it might be!

Date:

Astronomy

Jul. 17, 2013 Rise Set
Actual Time 6:12 AM CDT 8:33 PM CDT
Civil Twilight 5:42 AM CDT 9:02 PM CDT
Nautical Twilight 5:06 AM CDT 9:39 PM CDT
Astronomical Twilight 4:26 AM CDT 10:18 PM CDT
Moon 3:25 PM CDT (7/17) 1:16 AM CDT (7/17)
Length of Visible Light 15h 20m
Length of Day
14h 21m
Waxing Gibbous, 67% of the Moon is Illuminated
Jul 17
Waxing Gibbous
Jul 22
Full
Jul 29
Last Quarter
Aug 6
New
Aug 14
First Quarter

Hourly Weather History & Observations

Time (CDT) Temp. Heat Index Dew Point Humidity Pressure Visibility Wind Dir Wind Speed Gust Speed Precip Events Conditions
12:15 AM 75.2 °F - 69.8 °F 83% 30.29 in 10.0 mi East 5.8 mph - N/A   Clear
12:36 AM 75.2 °F - 69.8 °F 83% 30.30 in 10.0 mi East 3.5 mph - N/A   Clear
12:55 AM 73.4 °F - 69.8 °F 88% 30.30 in 10.0 mi East 4.6 mph - N/A   Clear
1:15 AM 73.4 °F - 69.8 °F 88% 30.30 in 10.0 mi ESE 4.6 mph - N/A   Clear
1:35 AM 73.4 °F - 69.8 °F 88% 30.30 in 10.0 mi ESE 5.8 mph - N/A   Clear
1:55 AM 73.4 °F - 69.8 °F 88% 30.30 in 10.0 mi East 3.5 mph - N/A   Clear
2:15 AM 73.4 °F - 69.8 °F 88% 30.30 in 10.0 mi East 4.6 mph - N/A   Clear
2:35 AM 73.4 °F - 69.8 °F 88% 30.30 in 10.0 mi East 3.5 mph - N/A   Clear
2:56 AM 73.4 °F - 69.8 °F 88% 30.29 in 10.0 mi East 3.5 mph - N/A   Clear
3:15 AM 71.6 °F - 68.0 °F 88% 30.29 in 10.0 mi Calm Calm - N/A   Clear
3:35 AM 71.6 °F - 68.0 °F 88% 30.29 in 10.0 mi East 4.6 mph - N/A   Clear
3:55 AM 71.6 °F - 68.0 °F 88% 30.29 in 10.0 mi East 3.5 mph - N/A   Clear
4:15 AM 71.6 °F - 68.0 °F 88% 30.29 in 10.0 mi ESE 4.6 mph - N/A   Clear
4:35 AM 71.6 °F - 68.0 °F 88% 30.29 in 10.0 mi Calm Calm - N/A   Clear
4:55 AM 71.6 °F - 66.2 °F 83% 30.30 in 10.0 mi Calm Calm - N/A   Clear
5:35 AM 69.8 °F - 66.2 °F 88% 30.31 in 10.0 mi East 3.5 mph - N/A   Clear
5:55 AM 71.6 °F - 66.2 °F 83% 30.31 in 10.0 mi Calm Calm - N/A   Clear
6:16 AM 69.8 °F - 66.2 °F 88% 30.32 in 10.0 mi Calm Calm - N/A   Clear
6:35 AM 69.8 °F - 66.2 °F 88% 30.32 in 9.0 mi Calm Calm - N/A   Clear
6:55 AM 71.6 °F - 68.0 °F 88% 30.32 in 10.0 mi East 4.6 mph - N/A   Clear
7:15 AM 73.4 °F - 68.0 °F 83% 30.32 in 10.0 mi ESE 4.6 mph - N/A   Clear
7:35 AM 75.2 °F - 69.8 °F 83% 30.33 in 10.0 mi ESE 4.6 mph - N/A   Clear
7:55 AM 75.2 °F - 69.8 °F 83% 30.33 in 10.0 mi ESE 5.8 mph - N/A   Clear
8:15 AM 78.8 °F - 69.8 °F 74% 30.34 in 10.0 mi SE 5.8 mph - N/A   Clear
8:36 AM 78.8 °F - 69.8 °F 74% 30.34 in 10.0 mi SE 4.6 mph - N/A   Clear
8:55 AM 80.6 °F 83.9 °F 69.8 °F 70% 30.35 in 10.0 mi SSE 6.9 mph - N/A   Clear
9:15 AM 80.6 °F 83.9 °F 69.8 °F 70% 30.35 in 10.0 mi SE 8.1 mph - N/A   Clear
9:35 AM 82.4 °F 86.3 °F 69.8 °F 66% 30.35 in 10.0 mi SSE 8.1 mph - N/A   Clear
9:55 AM 82.4 °F 85.4 °F 68.0 °F 62% 30.34 in 10.0 mi SE 8.1 mph - N/A   Clear
10:15 AM 82.4 °F 84.6 °F 66.2 °F 58% 30.34 in 10.0 mi South 8.1 mph - N/A   Partly Cloudy
10:55 AM 84.2 °F 86.6 °F 66.2 °F 55% 30.34 in 10.0 mi ESE 3.5 mph - N/A   Scattered Clouds
11:15 AM 84.2 °F 86.6 °F 66.2 °F 55% 30.34 in 10.0 mi SSE 6.9 mph - N/A   Scattered Clouds
11:35 AM 87.8 °F 90.4 °F 66.2 °F 49% 30.35 in 10.0 mi South 4.6 mph - N/A   Scattered Clouds
11:55 AM 87.8 °F 90.4 °F 66.2 °F 49% 30.34 in 10.0 mi South 8.1 mph - N/A   Scattered Clouds
12:15 PM 87.8 °F 90.4 °F 66.2 °F 49% 30.34 in 10.0 mi East 4.6 mph - N/A   Partly Cloudy
12:35 PM 86.0 °F 87.3 °F 64.4 °F 48% 30.34 in 10.0 mi Calm Calm - N/A   Mostly Cloudy
12:55 PM 87.8 °F 89.4 °F 64.4 °F 46% 30.33 in 10.0 mi SSE 4.6 mph - N/A   Scattered Clouds
1:15 PM 89.6 °F 91.1 °F 64.4 °F 43% 30.33 in 10.0 mi ESE 6.9 mph - N/A   Scattered Clouds
1:35 PM 89.6 °F 91.1 °F 64.4 °F 43% 30.33 in 10.0 mi South 6.9 mph - N/A   Partly Cloudy
1:56 PM 89.6 °F 91.1 °F 64.4 °F 43% 30.32 in 10.0 mi ESE 5.8 mph - N/A   Partly Cloudy
2:15 PM 89.6 °F 92.2 °F 66.2 °F 46% 30.31 in 10.0 mi SW 8.1 mph - N/A   Scattered Clouds
2:35 PM 91.4 °F 94.0 °F 66.2 °F 43% 30.30 in 10.0 mi SE 5.8 mph - N/A   Mostly Cloudy
2:55 PM 91.4 °F 93.2 °F 64.4 °F 41% 30.29 in 10.0 mi East 6.9 mph - N/A   Overcast
3:15 PM 89.6 °F 91.1 °F 64.4 °F 43% 30.28 in 10.0 mi East 5.8 mph - N/A   Mostly Cloudy
3:35 PM 89.6 °F 91.1 °F 64.4 °F 43% 30.28 in 10.0 mi ESE 8.1 mph - N/A   Scattered Clouds
3:55 PM 91.4 °F 93.2 °F 64.4 °F 41% 30.27 in 10.0 mi SE 4.6 mph - N/A   Clear
4:16 PM 93.2 °F 94.1 °F 62.6 °F 36% 30.26 in 10.0 mi SE 9.2 mph - N/A   Partly Cloudy
4:35 PM 93.2 °F 94.1 °F 62.6 °F 36% 30.26 in 10.0 mi SSE 6.9 mph - N/A   Clear
4:55 PM 93.2 °F 94.1 °F 62.6 °F 36% 30.25 in 10.0 mi SSE 5.8 mph - N/A   Scattered Clouds
5:15 PM 93.2 °F 93.3 °F 60.8 °F 34% 30.24 in 10.0 mi SE 6.9 mph - N/A   Partly Cloudy
5:35 PM 93.2 °F 94.1 °F 62.6 °F 36% 30.24 in 10.0 mi South 5.8 mph - N/A   Clear
5:55 PM 93.2 °F 94.1 °F 62.6 °F 36% 30.23 in 10.0 mi South 5.8 mph - N/A   Scattered Clouds
6:15 PM 93.2 °F 94.1 °F 62.6 °F 36% 30.23 in 10.0 mi East 3.5 mph - N/A   Mostly Cloudy
6:35 PM 93.2 °F 94.1 °F 62.6 °F 36% 30.22 in 10.0 mi SE 3.5 mph - N/A   Mostly Cloudy
6:55 PM 91.4 °F 92.1 °F 62.6 °F 38% 30.22 in 10.0 mi SSW 6.9 mph - N/A   Partly Cloudy
7:15 PM 91.4 °F 92.1 °F 62.6 °F 38% 30.22 in 10.0 mi SW 5.8 mph - N/A   Scattered Clouds
7:35 PM 91.4 °F 92.1 °F 62.6 °F 38% 30.22 in 10.0 mi SSW 5.8 mph - N/A   Scattered Clouds
7:55 PM 89.6 °F 90.1 °F 62.6 °F 40% 30.22 in 10.0 mi WSW 4.6 mph - N/A   Partly Cloudy
8:15 PM 87.8 °F 88.5 °F 62.6 °F 43% 30.23 in 10.0 mi Calm Calm - N/A   Clear
8:35 PM 86.0 °F 86.6 °F 62.6 °F 45% 30.22 in 10.0 mi SW 3.5 mph - N/A   Clear
8:55 PM 84.2 °F 85.0 °F 62.6 °F 48% 30.22 in 10.0 mi Calm Calm - N/A   Clear
9:15 PM 82.4 °F 83.4 °F 62.6 °F 51% 30.23 in 10.0 mi Calm Calm - N/A   Clear
9:35 PM 80.6 °F 81.8 °F 62.6 °F 54% 30.24 in 10.0 mi Calm Calm - N/A   Clear
9:55 PM 78.8 °F - 62.6 °F 57% 30.24 in 10.0 mi Calm Calm - N/A   Clear
10:15 PM 80.6 °F 82.3 °F 64.4 °F 58% 30.24 in 10.0 mi Calm Calm - N/A   Clear
10:35 PM 78.8 °F - 64.4 °F 61% 30.24 in 10.0 mi Calm Calm - N/A   Clear
10:55 PM 78.8 °F - 64.4 °F 61% 30.24 in 10.0 mi Calm Calm - N/A   Clear
11:15 PM 77.0 °F - 64.4 °F 65% 30.25 in 10.0 mi Calm Calm - N/A   Clear
11:35 PM 75.2 °F - 64.4 °F 69% 30.24 in 10.0 mi Calm Calm - N/A   Clear
11:55 PM 75.2 °F - 64.4 °F 69% 30.24 in 10.0 mi Calm Calm - N/A   Clear